Time,TemperatureF,DewpointF,PressureIn,WindDirection,WindDirectionDegrees,WindSpeedMPH,WindSpeedGustMPH,Humidity,HourlyPrecipIn,Conditions,Clouds,dailyrainin,SoftwareType,DateUTC
2013-05-12 00:02:00,37.0,24.0,30.23,North,9,0.0,-999.0,58,-99.99,,,-99.99,,2013-05-12 05:02:00,
2013-05-12 00:11:00,37.0,24.0,30.23,North,9,0.0,-999.0,58,-99.99,,,-99.99,,2013-05-12 05:11:00,
2013-05-12 00:22:00,38.0,25.0,30.24,North,9,1.0,-999.0,59,-99.99,,,-99.99,,2013-05-12 05:22:00,
2013-05-12 00:32:00,37.0,24.0,30.24,North,5,1.0,-999.0,60,-99.99,,,-99.99,,2013-05-12 05:32:00,
2013-05-12 00:42:00,37.0,24.0,30.24,North,5,1.0,-999.0,60,-99.99,,,-99.99,,2013-05-12 05:42:00,
2013-05-12 00:51:00,36.0,25.0,30.23,North,355,2.0,-999.0,65,-99.99,,,-99.99,,2013-05-12 05:51:00,
2013-05-12 01:01:00,36.0,25.0,30.22,SSW,206,4.0,-999.0,63,-99.99,,,-99.99,,2013-05-12 06:01:00,
2013-05-12 01:11:00,36.0,25.0,30.22,SSW,206,4.0,-999.0,63,-99.99,,,-99.99,,2013-05-12 06:11:00,
2013-05-12 01:21:00,36.0,25.0,30.23,SSW,207,4.0,-999.0,63,-99.99,,,-99.99,,2013-05-12 06:21:00,
2013-05-12 01:32:00,35.0,24.0,30.23,SSW,204,4.0,-999.0,64,-99.99,,,-99.99,,2013-05-12 06:32:00,
2013-05-12 01:42:00,35.0,24.0,30.22,SSW,202,2.0,-999.0,63,-99.99,,,-99.99,,2013-05-12 06:42:00,
2013-05-12 01:51:00,35.0,24.0,30.22,SSW,202,2.0,-999.0,63,-99.99,,,-99.99,,2013-05-12 06:51:00,
2013-05-12 02:01:00,34.0,23.0,30.22,SSW,202,3.0,-999.0,65,-99.99,,,-99.99,,2013-05-12 07:01:00,
2013-05-12 02:11:00,34.0,23.0,30.22,SSW,202,3.0,-999.0,65,-99.99,,,-99.99,,2013-05-12 07:11:00,
2013-05-12 02:21:00,34.0,24.0,30.22,SSW,205,3.0,-999.0,66,-99.99,,,-99.99,,2013-05-12 07:21:00,
2013-05-12 02:32:00,34.0,22.0,30.22,SSW,204,5.0,-999.0,62,-99.99,,,-99.99,,2013-05-12 07:32:00,
2013-05-12 02:42:00,34.0,22.0,30.22,SSW,204,5.0,-999.0,62,-99.99,,,-99.99,,2013-05-12 07:42:00,
2013-05-12 02:52:00,33.0,22.0,30.22,SSW,203,4.0,-999.0,63,-99.99,,,-99.99,,2013-05-12 07:52:00,
2013-05-12 03:02:00,31.0,21.0,30.22,SSW,202,2.0,-999.0,66,-99.99,,,-99.99,,2013-05-12 08:02:00,
2013-05-12 03:11:00,31.0,21.0,30.22,SSW,202,2.0,-999.0,66,-99.99,,,-99.99,,2013-05-12 08:11:00,
2013-05-12 03:21:00,30.0,23.0,30.22,SSW,202,1.0,-999.0,74,-99.99,,,-99.99,,2013-05-12 08:21:00,
2013-05-12 03:32:00,32.0,23.0,30.22,SSW,202,3.0,-999.0,69,-99.99,,,-99.99,,2013-05-12 08:32:00,
2013-05-12 03:41:00,32.0,23.0,30.22,SSW,202,3.0,-999.0,69,-99.99,,,-99.99,,2013-05-12 08:41:00,
2013-05-12 03:52:00,32.0,21.0,30.22,SSW,202,4.0,-999.0,64,-99.99,,,-99.99,,2013-05-12 08:52:00,
2013-05-12 04:01:00,32.0,22.0,30.21,SSW,202,5.0,-999.0,66,-99.99,,,-99.99,,2013-05-12 09:01:00,
2013-05-12 04:11:00,32.0,22.0,30.21,SSW,202,5.0,-999.0,66,-99.99,,,-99.99,,2013-05-12 09:11:00,
2013-05-12 04:21:00,32.0,22.0,30.20,SSW,202,5.0,-999.0,66,-99.99,,,-99.99,,2013-05-12 09:21:00,
2013-05-12 04:33:00,32.0,22.0,30.20,SSW,202,4.0,-999.0,66,-99.99,,,-99.99,,2013-05-12 09:33:00,
2013-05-12 04:42:00,32.0,22.0,30.20,SSW,202,4.0,-999.0,66,-99.99,,,-99.99,,2013-05-12 09:42:00,
2013-05-12 04:52:00,31.0,22.0,30.20,SSW,203,3.0,-999.0,69,-99.99,,,-99.99,,2013-05-12 09:52:00,
2013-05-12 05:03:00,30.0,22.0,30.19,SSW,203,1.0,-999.0,71,-99.99,,,-99.99,,2013-05-12 10:03:00,
2013-05-12 05:12:00,30.0,22.0,30.19,SSW,203,1.0,-999.0,71,-99.99,,,-99.99,,2013-05-12 10:12:00,
2013-05-12 05:22:00,28.0,22.0,30.19,SSW,203,1.0,-999.0,78,-99.99,,,-99.99,,2013-05-12 10:22:00,
2013-05-12 05:33:00,29.0,23.0,30.19,SSW,203,1.0,-999.0,77,-99.99,,,-99.99,,2013-05-12 10:33:00,
2013-05-12 05:42:00,29.0,23.0,30.19,SSW,203,1.0,-999.0,77,-99.99,,,-99.99,,2013-05-12 10:42:00,
2013-05-12 05:52:00,27.0,21.0,30.19,SSW,203,0.0,-999.0,79,-99.99,,,-99.99,,2013-05-12 10:52:00,
2013-05-12 06:02:00,27.0,22.0,30.19,SSW,203,0.0,-999.0,80,-99.99,,,-99.99,,2013-05-12 11:02:00,
2013-05-12 06:12:00,27.0,22.0,30.19,SSW,203,0.0,-999.0,80,-99.99,,,-99.99,,2013-05-12 11:12:00,
2013-05-12 06:22:00,26.0,21.0,30.19,SSW,203,0.0,-999.0,82,-99.99,,,-99.99,,2013-05-12 11:22:00,
2013-05-12 06:32:00,27.0,23.0,30.18,SSW,203,0.0,-999.0,84,-99.99,,,-99.99,,2013-05-12 11:32:00,
2013-05-12 06:42:00,28.0,23.0,30.19,SSW,203,0.0,-999.0,82,-99.99,,,-99.99,,2013-05-12 11:42:00,
2013-05-12 06:52:00,28.0,23.0,30.19,SSW,203,0.0,-999.0,82,-99.99,,,-99.99,,2013-05-12 11:52:00,
2013-05-12 07:01:00,27.0,23.0,30.19,SSW,203,0.0,-999.0,84,-99.99,,,-99.99,,2013-05-12 12:01:00,
2013-05-12 07:11:00,27.0,23.0,30.19,SSW,203,1.0,-999.0,85,-99.99,,,-99.99,,2013-05-12 12:11:00,
2013-05-12 07:21:00,27.0,23.0,30.19,SSW,203,1.0,-999.0,85,-99.99,,,-99.99,,2013-05-12 12:21:00,
2013-05-12 07:32:00,28.0,24.0,30.19,SSW,203,2.0,-999.0,86,-99.99,,,-99.99,,2013-05-12 12:32:00,
2013-05-12 07:41:00,28.0,24.0,30.19,SSW,203,2.0,-999.0,86,-99.99,,,-99.99,,2013-05-12 12:41:00,
2013-05-12 07:51:00,31.0,27.0,30.19,SSW,203,1.0,-999.0,86,-99.99,,,-99.99,,2013-05-12 12:51:00,
2013-05-12 08:01:00,34.0,29.0,30.18,SSW,203,1.0,-999.0,83,-99.99,,,-99.99,,2013-05-12 13:01:00,
2013-05-12 08:11:00,34.0,29.0,30.18,SSW,203,1.0,-999.0,83,-99.99,,,-99.99,,2013-05-12 13:11:00,
2013-05-12 08:21:00,38.0,28.0,30.18,South,183,4.0,-999.0,67,-99.99,,,-99.99,,2013-05-12 13:21:00,
2013-05-12 08:32:00,40.0,28.0,30.18,SSE,156,4.0,-999.0,61,-99.99,,,-99.99,,2013-05-12 13:32:00,
2013-05-12 08:41:00,40.0,28.0,30.18,SSE,156,4.0,-999.0,61,-99.99,,,-99.99,,2013-05-12 13:41:00,
2013-05-12 08:52:00,43.0,28.0,30.17,SSE,157,4.0,-999.0,55,-99.99,,,-99.99,,2013-05-12 13:52:00,
2013-05-12 09:01:00,45.0,28.0,30.17,SSE,155,4.0,-999.0,51,-99.99,,,-99.99,,2013-05-12 14:01:00,
2013-05-12 09:11:00,45.0,28.0,30.17,SSE,155,4.0,-999.0,51,-99.99,,,-99.99,,2013-05-12 14:11:00,
2013-05-12 09:21:00,47.0,28.0,30.17,South,170,4.0,-999.0,47,-99.99,,,-99.99,,2013-05-12 14:21:00,
2013-05-12 09:32:00,49.0,29.0,30.16,SSE,167,4.0,-999.0,46,-99.99,,,-99.99,,2013-05-12 14:32:00,
2013-05-12 09:42:00,51.0,28.0,30.16,SW,221,5.0,-999.0,40,-99.99,,,-99.99,,2013-05-12 14:42:00,
2013-05-12 09:52:00,51.0,28.0,30.16,SW,221,5.0,-999.0,40,-99.99,,,-99.99,,2013-05-12 14:52:00,
2013-05-12 10:01:00,53.0,25.0,30.15,SSW,203,7.0,-999.0,33,-99.99,,,-99.99,,2013-05-12 15:01:00,
2013-05-12 10:11:00,53.0,25.0,30.15,SSW,203,7.0,-999.0,33,-99.99,,,-99.99,,2013-05-12 15:11:00,
2013-05-12 10:21:00,54.0,24.0,30.15,SSE,163,9.0,-999.0,31,-99.99,,,-99.99,,2013-05-12 15:21:00,
2013-05-12 10:34:00,56.0,25.0,30.14,SSW,202,5.0,-999.0,30,-99.99,,,-99.99,,2013-05-12 15:34:00,
2013-05-12 10:42:00,56.0,25.0,30.14,SSW,202,5.0,-999.0,30,-99.99,,,-99.99,,2013-05-12 15:42:00,
2013-05-12 10:52:00,57.0,25.0,30.14,SSW,196,7.0,-999.0,29,-99.99,,,-99.99,,2013-05-12 15:52:00,
2013-05-12 11:02:00,58.0,24.0,30.13,SSE,163,5.0,-999.0,27,-99.99,,,-99.99,,2013-05-12 16:02:00,
2013-05-12 11:12:00,58.0,24.0,30.13,SSE,163,5.0,-999.0,27,-99.99,,,-99.99,,2013-05-12 16:12:00,
2013-05-12 11:23:00,59.0,23.0,30.13,SSE,167,7.0,-999.0,25,-99.99,,,-99.99,,2013-05-12 16:23:00,
2013-05-12 11:33:00,60.0,25.0,30.12,SSE,164,6.0,-999.0,26,-99.99,,,-99.99,,2013-05-12 16:33:00,
2013-05-12 11:42:00,60.0,25.0,30.12,SSE,164,6.0,-999.0,26,-99.99,,,-99.99,,2013-05-12 16:42:00,
2013-05-12 11:52:00,61.0,23.0,30.11,SSW,207,5.0,-999.0,23,-99.99,,,-99.99,,2013-05-12 16:52:00,
2013-05-12 12:02:00,61.0,23.0,30.11,SSE,149,8.0,-999.0,23,-99.99,,,-99.99,,2013-05-12 17:02:00,
2013-05-12 12:12:00,61.0,23.0,30.11,SSE,149,8.0,-999.0,23,-99.99,,,-99.99,,2013-05-12 17:12:00,
2013-05-12 12:22:00,61.0,24.0,30.11,SE,135,8.0,-999.0,24,-99.99,,,-99.99,,2013-05-12 17:22:00,
2013-05-12 12:32:00,61.0,23.0,30.10,SSW,212,6.0,-999.0,23,-99.99,,,-99.99,,2013-05-12 17:32:00,
2013-05-12 12:42:00,62.0,22.0,30.09,South,175,10.0,-999.0,21,-99.99,,,-99.99,,2013-05-12 17:42:00,
2013-05-12 12:52:00,62.0,22.0,30.09,South,175,10.0,-999.0,21,-99.99,,,-99.99,,2013-05-12 17:52:00,
2013-05-12 13:01:00,62.0,23.0,30.08,SSW,207,8.0,-999.0,22,-99.99,,,-99.99,,2013-05-12 18:01:00,
2013-05-12 13:12:00,62.0,23.0,30.08,SSW,207,8.0,-999.0,22,-99.99,,,-99.99,,2013-05-12 18:12:00,
2013-05-12 13:22:00,63.0,24.0,30.07,SSW,206,9.0,-999.0,22,-99.99,,,-99.99,,2013-05-12 18:22:00,
2013-05-12 13:32:00,64.0,24.0,30.06,SSE,157,5.0,-999.0,22,-99.99,,,-99.99,,2013-05-12 18:32:00,
2013-05-12 13:42:00,64.0,24.0,30.06,SSE,157,5.0,-999.0,22,-99.99,,,-99.99,,2013-05-12 18:42:00,
2013-05-12 13:51:00,64.0,23.0,30.05,SSW,213,7.0,-999.0,21,-99.99,,,-99.99,,2013-05-12 18:51:00,
2013-05-12 14:01:00,64.0,24.0,30.06,SSW,211,8.0,-999.0,22,-99.99,,,-99.99,,2013-05-12 19:01:00,
2013-05-12 14:11:00,64.0,24.0,30.06,SSW,211,8.0,-999.0,22,-99.99,,,-99.99,,2013-05-12 19:11:00,
2013-05-12 14:21:00,65.0,25.0,30.04,SSE,161,5.0,-999.0,22,-99.99,,,-99.99,,2013-05-12 19:21:00,
2013-05-12 14:32:00,66.0,26.0,30.04,West,262,5.0,-999.0,22,-99.99,,,-99.99,,2013-05-12 19:32:00,
2013-05-12 14:42:00,66.0,27.0,30.03,West,264,6.0,-999.0,23,-99.99,,,-99.99,,2013-05-12 19:42:00,
2013-05-12 14:52:00,66.0,27.0,30.03,West,264,6.0,-999.0,23,-99.99,,,-99.99,,2013-05-12 19:52:00,
2013-05-12 15:02:00,67.0,28.0,30.02,SSW,211,4.0,-999.0,23,-99.99,,,-99.99,,2013-05-12 20:02:00,
2013-05-12 15:11:00,67.0,27.0,30.01,SSW,196,5.0,-999.0,22,-99.99,,,-99.99,,2013-05-12 20:11:00,
2013-05-12 15:21:00,67.0,27.0,30.01,SSW,196,5.0,-999.0,22,-99.99,,,-99.99,,2013-05-12 20:21:00,
2013-05-12 15:32:00,68.0,28.0,30.01,SSE,160,5.0,-999.0,22,-99.99,,,-99.99,,2013-05-12 20:32:00,
2013-05-12 15:42:00,68.0,28.0,30.01,SSE,160,5.0,-999.0,22,-99.99,,,-99.99,,2013-05-12 20:42:00,
2013-05-12 15:51:00,67.0,27.0,30.00,SW,215,6.0,-999.0,22,-99.99,,,-99.99,,2013-05-12 20:51:00,
2013-05-12 16:01:00,67.0,26.0,29.99,SE,132,8.0,-999.0,21,-99.99,,,-99.99,,2013-05-12 21:01:00,
2013-05-12 16:11:00,67.0,26.0,29.99,SE,132,8.0,-999.0,21,-99.99,,,-99.99,,2013-05-12 21:11:00,
2013-05-12 16:21:00,69.0,29.0,29.98,SSE,147,6.0,-999.0,22,-99.99,,,-99.99,,2013-05-12 21:21:00,
2013-05-12 16:33:00,69.0,27.0,29.98,SW,215,5.0,-999.0,21,-99.99,,,-99.99,,2013-05-12 21:33:00,
2013-05-12 16:42:00,69.0,27.0,29.98,SW,215,5.0,-999.0,21,-99.99,,,-99.99,,2013-05-12 21:42:00,
2013-05-12 16:52:00,70.0,28.0,29.96,SE,129,6.0,-999.0,21,-99.99,,,-99.99,,2013-05-12 21:52:00,
2013-05-12 17:02:00,71.0,30.0,29.96,SSE,153,7.0,-999.0,22,-99.99,,,-99.99,,2013-05-12 22:02:00,
2013-05-12 17:12:00,71.0,30.0,29.96,SSE,153,7.0,-999.0,22,-99.99,,,-99.99,,2013-05-12 22:12:00,
2013-05-12 17:23:00,69.0,29.0,29.95,SSE,156,5.0,-999.0,22,-99.99,,,-99.99,,2013-05-12 22:23:00,
2013-05-12 17:33:00,69.0,29.0,29.94,SSW,199,3.0,-999.0,22,-99.99,,,-99.99,,2013-05-12 22:33:00,
2013-05-12 17:42:00,69.0,29.0,29.94,SSW,199,3.0,-999.0,22,-99.99,,,-99.99,,2013-05-12 22:42:00,
2013-05-12 17:52:00,70.0,29.0,29.93,SSE,164,4.0,-999.0,22,-99.99,,,-99.99,,2013-05-12 22:52:00,
2013-05-12 18:02:00,70.0,30.0,29.92,SSE,153,7.0,-999.0,23,-99.99,,,-99.99,,2013-05-12 23:02:00,
2013-05-12 18:12:00,70.0,30.0,29.92,SSE,153,7.0,-999.0,23,-99.99,,,-99.99,,2013-05-12 23:12:00,
2013-05-12 18:22:00,70.0,30.0,29.92,SSE,165,6.0,-999.0,23,-99.99,,,-99.99,,2013-05-12 23:22:00,
2013-05-12 18:32:00,70.0,30.0,29.91,SSE,165,8.0,-999.0,23,-99.99,,,-99.99,,2013-05-12 23:32:00,
2013-05-12 18:42:00,70.0,30.0,29.91,SSE,165,8.0,-999.0,23,-99.99,,,-99.99,,2013-05-12 23:42:00,
2013-05-12 18:52:00,70.0,30.0,29.91,SSE,154,9.0,-999.0,23,-99.99,,,-99.99,,2013-05-12 23:52:00,
2013-05-12 19:01:00,70.0,30.0,29.90,SSW,203,7.0,-999.0,23,-99.99,,,-99.99,,2013-05-13 00:01:00,
2013-05-12 19:11:00,70.0,30.0,29.90,SSW,203,7.0,-999.0,23,-99.99,,,-99.99,,2013-05-13 00:11:00,
2013-05-12 19:21:00,69.0,31.0,29.89,SE,141,10.0,-999.0,24,-99.99,,,-99.99,,2013-05-13 00:21:00,
2013-05-12 19:32:00,69.0,31.0,29.88,SSE,156,7.0,-999.0,24,-99.99,,,-99.99,,2013-05-13 00:32:00,
2013-05-12 19:42:00,69.0,31.0,29.88,SSE,156,7.0,-999.0,24,-99.99,,,-99.99,,2013-05-13 00:42:00,
2013-05-12 19:51:00,69.0,31.0,29.87,SSE,165,9.0,-999.0,24,-99.99,,,-99.99,,2013-05-13 00:51:00,
2013-05-12 20:01:00,68.0,30.0,29.87,SE,144,10.0,-999.0,24,-99.99,,,-99.99,,2013-05-13 01:01:00,
2013-05-12 20:11:00,68.0,30.0,29.87,SE,144,10.0,-999.0,24,-99.99,,,-99.99,,2013-05-13 01:11:00,
2013-05-12 20:22:00,67.0,32.0,29.86,SE,142,8.0,-999.0,27,-99.99,,,-99.99,,2013-05-13 01:22:00,
2013-05-12 20:31:00,66.0,31.0,29.85,SE,140,8.0,-999.0,27,-99.99,,,-99.99,,2013-05-13 01:31:00,
2013-05-12 20:41:00,66.0,31.0,29.85,SE,140,8.0,-999.0,27,-99.99,,,-99.99,,2013-05-13 01:41:00,
2013-05-12 20:52:00,65.0,33.0,29.85,SE,136,6.0,-999.0,30,-99.99,,,-99.99,,2013-05-13 01:52:00,
2013-05-12 21:01:00,64.0,33.0,29.84,SE,136,7.0,-999.0,31,-99.99,,,-99.99,,2013-05-13 02:01:00,
2013-05-12 21:11:00,64.0,33.0,29.84,SE,136,7.0,-999.0,31,-99.99,,,-99.99,,2013-05-13 02:11:00,
2013-05-12 21:21:00,64.0,33.0,29.83,SE,140,8.0,-999.0,31,-99.99,,,-99.99,,2013-05-13 02:21:00,
2013-05-12 21:32:00,62.0,33.0,29.82,SE,127,7.0,-999.0,33,-99.99,,,-99.99,,2013-05-13 02:32:00,
2013-05-12 21:41:00,62.0,33.0,29.82,SE,127,7.0,-999.0,33,-99.99,,,-99.99,,2013-05-13 02:41:00,
2013-05-12 21:51:00,62.0,33.0,29.81,SE,128,9.0,-999.0,33,-99.99,,,-99.99,,2013-05-13 02:51:00,
2013-05-12 22:02:00,62.0,33.0,29.80,SE,130,10.0,-999.0,34,-99.99,,,-99.99,,2013-05-13 03:02:00,
2013-05-12 22:11:00,62.0,33.0,29.80,SE,130,10.0,-999.0,34,-99.99,,,-99.99,,2013-05-13 03:11:00,
2013-05-12 22:21:00,61.0,32.0,29.80,ESE,122,10.0,-999.0,34,-99.99,,,-99.99,,2013-05-13 03:21:00,
2013-05-12 22:32:00,61.0,32.0,29.80,SE,134,11.0,-999.0,33,-99.99,,,-99.99,,2013-05-13 03:32:00,
2013-05-12 22:42:00,61.0,32.0,29.80,SE,134,11.0,-999.0,33,-99.99,,,-99.99,,2013-05-13 03:42:00,
2013-05-12 22:52:00,61.0,33.0,29.79,SE,133,12.0,-999.0,35,-99.99,,,-99.99,,2013-05-13 03:52:00,
2013-05-12 23:02:00,60.0,33.0,29.78,SE,128,11.0,-999.0,36,-99.99,,,-99.99,,2013-05-13 04:02:00,
2013-05-12 23:12:00,60.0,33.0,29.78,SE,128,11.0,-999.0,36,-99.99,,,-99.99,,2013-05-13 04:12:00,
2013-05-12 23:23:00,60.0,33.0,29.78,SE,128,11.0,-999.0,36,-99.99,,,-99.99,,2013-05-13 04:23:00,
2013-05-12 23:32:00,60.0,32.0,29.77,SE,129,11.0,-999.0,35,-99.99,,,-99.99,,2013-05-13 04:32:00,
2013-05-12 23:42:00,60.0,32.0,29.77,SE,129,11.0,-999.0,35,-99.99,,,-99.99,,2013-05-13 04:42:00,
2013-05-12 23:52:00,60.0,34.0,29.76,SE,140,12.0,-999.0,37,-99.99,,,-99.99,,2013-05-13 04:52:00,